"SCET";"TARGET";"ELECTRON_DENSITY";"ERROR_FLAG";"ELECTRON_DENSITY_ERROR";"FREQ_FCE";"MEASURED_VALUE";"MEASURED_ITEM";"FREQ_PLASMA";"FREQ_UPPER_HYBRID";"FREQ_R_EQUALS_ZERO";"FREQ_L_EQUALS_ZERO";"ORBIT_NUMBER";"SATURN_RADIUS";"SATURN_IAU_LONGITUDE";"SATURN_SLS4_S_LONGITUDE";"SATURN_SLS4_N_LONGITUDE";"SATURN_SLS5_S_LONGITUDE";"SATURN_SLS5_N_LONGITUDE";"SATURN_LOCAL_TIME";"SATURN_KRONOGRAPHIC_LATITUDE";"SATURN_MAGNETIC_LATITUDE";"SATURN_L";"SATURN_L_OFFSET";"SATURN_SOLAR_EQUATORIAL_X";"SATURN_SOLAR_EQUATORIAL_Y";"SATURN_SOLAR_EQUATORIAL_Z";"SATURN_ALTITUDE";"ENCELADUS_ENCOUNTER_NUMBER";"ENCELADUS_RADIUS";"ENCELADUS_COROTATIONAL_X";"ENCELADUS_COROTATIONAL_Y";"ENCELADUS_COROTATIONAL_Z";"ENCELADUS_TRUE_ANOMALY";"ENCELADUS_PERIAPSIS_TIME";"JUPITER_RADIUS";"JUPITER_SYSTEMIII_LONGITUDE";"JUPITER_MAGNETIC_LATITUDE";"JUPITER_MAGNETIC_LOCAL_TIME";"JUPITER_L";"IO_PHASE";"EARTH_RADIUS";"EARTH_MAGNETIC_LATITUDE";"EARTH_LOCAL_TIME";"EARTH_L"
"[UTC]";"[0=Saturn, 1=Enceladus, 2=Jupiter, 3=Earth]";"[cm-3]";"[0=automated, 1=manual]";"[normalized density error]";"[Hz]";"[Hz]";"[0=upper hybrid frequency, 1=plasma frequency cutoff]";"[Hz]";"[Hz]";"[Hz]";"[Hz}";"[0, A, B, C, 3, 4, ... , 292, 293]";"[Rs where 1Rs=60268km]";"[degrees]";"[degrees]";"[degrees]";"[degrees]";"[degrees]";"[hours]";"[degrees]";"[degrees where offset=2293km north]";"[Rs where 1Rs=60268km]";"[Rs where 1Rs=60268km and offset=2293km north]";"[Rs where 1Rs=60268km]";"[Rs where 1Rs=60268km]";"[Rs where 1Rs=60268km]";"[km where ellipsoid a,b=60268km and c=54364km]";"[E0, E1, E2, ... , E21, E22]";"[Renc where 1Renc=252.1km]";"[Renc where 1Renc=252.1km]";"[Renc where 1Renc=252.1km]";"[Renc where 1Renc=252.1km]";"[degrees]";"[UTC]";"[Rj where 1Rj=71492km]";"[degrees]";"[degrees using JRM09 model]";"[hours using JRM09 model]";"[Rj where 1Rj=71492km]";"[degrees]";"[Re where 1Re=6378.1366km]";"[degrees]";"[hours]";"[Re where 1Re=6378.1366km]"
2016-11-11T01:09:21.063Z;0;3.7330e+00;0;     0.101;  2471.896;  17526.295; 0;  17351.102;  17526.295;  18631.014;  16159.118;248;   6.242; 188.693;;; 333.422;  69.819;  13.077;  14.063;  13.724;   6.634;   6.227;   5.816;   1.685;   1.517;;;;;;;;;;;;;;;;;;
2016-11-11T01:09:37.063Z;0;3.7480e+00;0;     0.121;  2471.896;  17559.840; 0;  17384.984;  17559.840;  18664.811;  16192.915;248;   6.241; 188.827;;; 333.554;  69.953;  13.078;  14.039;  13.699;   6.631;   6.226;   5.815;   1.686;   1.514;;;;;;;;;;;;;;;;;;
2016-11-11T01:09:53.063Z;0;3.7230e+00;0;     0.109;  2471.896;  17503.543; 0;  17328.121;  17503.543;  18608.090;  16136.194;248;   6.240; 188.960;;; 333.687;  70.086;  13.079;  14.014;  13.675;   6.629;   6.225;   5.815;   1.688;   1.511;;;;;;;;;;;;;;;;;;
2016-11-11T01:10:09.063Z;0;3.7270e+00;0;     0.107;  2472.400;  17511.789; 0;  17336.377;  17511.789;  18616.596;  16144.196;248;   6.239; 189.094;;; 333.820;  70.219;  13.080;  13.989;  13.650;   6.627;   6.224;   5.814;   1.690;   1.508;;;;;;;;;;;;;;;;;;
2016-11-11T01:10:25.063Z;0;3.7170e+00;0;     0.100;  2472.400;  17487.553; 0;  17311.896;  17487.553;  18592.178;  16119.776;248;   6.238; 189.227;;; 333.952;  70.350;  13.081;  13.965;  13.625;   6.624;   6.223;   5.813;   1.691;   1.505;;;;;;;;;;;;;;;;;;
2016-11-11T01:10:41.063Z;0;3.7160e+00;0;     0.085;  2472.400;  17485.275; 0;  17309.596;  17485.275;  18589.883;  16117.482;248;   6.237; 189.361;;; 334.085;  70.481;  13.082;  13.940;  13.600;   6.622;   6.222;   5.812;   1.693;   1.502;;;;;;;;;;;;;;;;;;
2016-11-11T01:12:01.062Z;0;3.9070e+00;0;     0.125;  2473.884;  17920.525; 0;  17748.947;  17920.525;  19028.939;  16555.055;248;   6.233; 190.028;;; 334.749;  71.136;  13.088;  13.816;  13.476;   6.610;   6.218;   5.809;   1.701;   1.488;;;;;;;;;;;;;;;;;;
2016-11-11T01:12:17.062Z;0;3.8970e+00;0;     0.127;  2473.884;  17899.715; 0;  17727.936;  17899.715;  19007.979;  16534.094;248;   6.232; 190.161;;; 334.881;  71.267;  13.089;  13.792;  13.451;   6.608;   6.217;   5.808;   1.703;   1.485;;;;;;;;;;;;;;;;;;
2016-11-11T01:12:33.062Z;0;3.9220e+00;0;     0.128;  2473.884;  17954.689; 0;  17783.441;  17954.689;  19063.350;  16589.465;248;   6.231; 190.295;;; 335.014;  71.398;  13.090;  13.767;  13.427;   6.605;   6.216;   5.807;   1.704;   1.483;;;;;;;;;;;;;;;;;;
2016-11-11T01:12:49.062Z;0;3.9130e+00;0;     0.110;  2473.884;  17935.633; 0;  17764.201;  17935.633;  19044.156;  16570.271;248;   6.230; 190.428;;; 335.147;  71.529;  13.091;  13.742;  13.402;   6.603;   6.215;   5.807;   1.706;   1.480;;;;;;;;;;;;;;;;;;
2016-11-11T01:13:05.062Z;0;3.9550e+00;0;     0.119;  2474.444;  18029.287; 0;  17858.676;  18029.287;  19138.703;  16664.260;248;   6.229; 190.562;;; 335.279;  71.659;  13.092;  13.717;  13.377;   6.600;   6.214;   5.806;   1.707;   1.477;;;;;;;;;;;;;;;;;;
2016-11-11T01:13:21.061Z;0;3.9580e+00;0;     0.136;  2474.444;  18036.660; 0;  17866.119;  18036.660;  19146.129;  16671.686;248;   6.228; 190.695;;; 335.412;  71.790;  13.094;  13.693;  13.352;   6.598;   6.213;   5.805;   1.709;   1.474;;;;;;;;;;;;;;;;;;
2016-11-11T01:13:37.061Z;0;4.1530e+00;0;     0.192;  2474.444;  18467.693; 0;  18301.170;  18467.693;  19580.164;  17105.721;248;   6.227; 190.829;;; 335.545;  71.920;  13.095;  13.668;  13.327;   6.596;   6.212;   5.804;   1.711;   1.471;;;;;;;;;;;;;;;;;;
2016-11-11T01:13:53.061Z;0;4.1440e+00;0;     0.164;  2474.444;  18447.516; 0;  18280.809;  18447.516;  19559.850;  17085.406;248;   6.227; 190.962;;; 335.677;  72.050;  13.096;  13.643;  13.302;   6.593;   6.211;   5.804;   1.712;   1.468;;;;;;;;;;;;;;;;;;
2016-11-11T01:14:09.061Z;0;4.1050e+00;0;     0.180;  2475.172;  18360.762; 0;  18193.160;  18360.762;  19472.791;  16997.619;248;   6.226; 191.096;;; 335.810;  72.181;  13.097;  13.618;  13.278;   6.591;   6.211;   5.803;   1.714;   1.466;;;;;;;;;;;;;;;;;;
2016-11-11T01:14:41.061Z;0;4.0830e+00;0;     0.178;  2475.172;  18312.533; 0;  18144.486;  18312.533;  19424.230;  16949.059;248;   6.224; 191.363;;; 336.075;  72.441;  13.099;  13.569;  13.228;   6.586;   6.209;   5.801;   1.717;   1.460;;;;;;;;;;;;;;;;;;
2016-11-11T01:14:57.061Z;0;4.1060e+00;0;     0.172;  2475.172;  18363.354; 0;  18195.775;  18363.354;  19475.400;  17000.229;248;   6.223; 191.496;;; 336.208;  72.571;  13.100;  13.544;  13.203;   6.584;   6.208;   5.801;   1.719;   1.457;;;;;;;;;;;;;;;;;;
2016-11-11T01:15:13.061Z;0;4.1110e+00;0;     0.143;  2476.236;  18375.043; 0;  18207.428;  18375.043;  19487.594;  17011.359;248;   6.222; 191.630;;; 336.341;  72.701;  13.101;  13.519;  13.178;   6.582;   6.207;   5.800;   1.720;   1.454;;;;;;;;;;;;;;;;;;
2016-11-11T01:15:29.061Z;0;4.1440e+00;0;     0.154;  2476.236;  18446.523; 0;  18279.564;  18446.523;  19559.564;  17083.328;248;   6.221; 191.763;;; 336.473;  72.831;  13.102;  13.494;  13.153;   6.579;   6.206;   5.799;   1.722;   1.451;;;;;;;;;;;;;;;;;;
2016-11-11T01:15:45.061Z;0;4.1440e+00;0;     0.140;  2476.236;  18448.156; 0;  18281.213;  18448.156;  19561.209;  17084.973;248;   6.220; 191.897;;; 336.606;  72.961;  13.104;  13.469;  13.128;   6.577;   6.205;   5.799;   1.724;   1.449;;;;;;;;;;;;;;;;;;
2016-11-11T01:16:01.060Z;0;4.1830e+00;0;     0.153;  2476.992;  18532.586; 0;  18366.307;  18532.586;  19646.514;  17169.521;248;   6.219; 192.030;;; 336.739;  73.090;  13.105;  13.444;  13.103;   6.575;   6.204;   5.798;   1.725;   1.446;;;;;;;;;;;;;;;;;;
2016-11-11T01:16:17.060Z;0;4.1960e+00;0;     0.166;  2476.992;  18560.443; 0;  18394.416;  18560.443;  19674.559;  17197.568;248;   6.218; 192.164;;; 336.871;  73.220;  13.106;  13.420;  13.078;   6.572;   6.203;   5.797;   1.727;   1.443;;;;;;;;;;;;;;;;;;
2016-11-11T01:16:33.060Z;0;4.1090e+00;0;     0.087;  2476.992;  18371.623; 0;  18203.875;  18371.623;  19484.451;  17007.461;248;   6.218; 192.297;;; 337.004;  73.350;  13.107;  13.395;  13.053;   6.570;   6.203;   5.796;   1.728;   1.440;;;;;;;;;;;;;;;;;;
2016-11-11T01:16:49.060Z;0;4.3270e+00;0;     0.142;  2476.992;  18843.855; 0;  18680.348;  18843.855;  19959.855;  17482.863;248;   6.217; 192.431;;; 337.137;  73.479;  13.108;  13.370;  13.028;   6.568;   6.202;   5.796;   1.730;   1.437;;;;;;;;;;;;;;;;;;
2016-11-11T01:17:05.060Z;0;4.2840e+00;0;     0.113;  2477.580;  18750.752; 0;  18586.348;  18750.752;  19866.375;  17388.795;248;   6.216; 192.564;;; 337.269;  73.609;  13.109;  13.345;  13.003;   6.566;   6.201;   5.795;   1.732;   1.434;;;;;;;;;;;;;;;;;;
2016-11-11T01:17:21.060Z;0;4.2120e+00;0;     0.144;  2477.580;  18596.281; 0;  18430.498;  18596.281;  19710.873;  17233.293;248;   6.215; 192.697;;; 337.402;  73.738;  13.110;  13.320;  12.978;   6.563;   6.200;   5.794;   1.733;   1.432;;;;;;;;;;;;;;;;;;
2016-11-11T01:17:37.060Z;0;4.2160e+00;0;     0.158;  2477.580;  18605.152; 0;  18439.449;  18605.152;  19719.805;  17242.225;248;   6.214; 192.831;;; 337.535;  73.868;  13.111;  13.295;  12.953;   6.561;   6.199;   5.793;   1.735;   1.429;;;;;;;;;;;;;;;;;;
2016-11-11T01:17:53.060Z;0;4.3400e+00;0;     0.136;  2477.580;  18871.979; 0;  18708.639;  18871.979;  19988.396;  17510.816;248;   6.213; 192.964;;; 337.667;  73.997;  13.112;  13.270;  12.928;   6.559;   6.198;   5.793;   1.737;   1.426;;;;;;;;;;;;;;;;;;
2016-11-11T01:18:09.060Z;0;4.3230e+00;0;     0.117;  2478.504;  18834.156; 0;  18670.363;  18834.156;  19950.697;  17472.193;248;   6.212; 193.098;;; 337.800;  74.126;  13.114;  13.245;  12.903;   6.556;   6.197;   5.792;   1.738;   1.423;;;;;;;;;;;;;;;;;;
2016-11-11T01:18:25.060Z;0;4.3350e+00;0;     0.121;  2478.504;  18861.232; 0;  18697.676;  18861.232;  19977.951;  17499.447;248;   6.211; 193.231;;; 337.933;  74.255;  13.115;  13.220;  12.878;   6.554;   6.196;   5.791;   1.740;   1.420;;;;;;;;;;;;;;;;;;
2016-11-11T01:18:41.059Z;0;4.3200e+00;0;     0.121;  2478.504;  18827.955; 0;  18664.107;  18827.955;  19944.455;  17465.951;248;   6.210; 193.365;;; 338.065;  74.384;  13.116;  13.196;  12.853;   6.552;   6.196;   5.790;   1.741;   1.417;;;;;;;;;;;;;;;;;;
2016-11-11T01:18:57.059Z;0;4.2760e+00;0;     0.157;  2478.504;  18734.557; 0;  18569.885;  18734.557;  19850.441;  17371.938;248;   6.210; 193.498;;; 338.198;  74.513;  13.117;  13.171;  12.828;   6.550;   6.195;   5.790;   1.743;   1.415;;;;;;;;;;;;;;;;;;
2016-11-11T01:19:13.059Z;0;4.3820e+00;0;     0.126;  2479.680;  18960.457; 0;  18797.609;  18960.457;  20078.293;  17598.613;248;   6.209; 193.632;;; 338.331;  74.642;  13.118;  13.146;  12.803;   6.547;   6.194;   5.789;   1.745;   1.412;;;;;;;;;;;;;;;;;;
2016-11-11T01:19:45.059Z;0;4.4020e+00;0;     0.118;  2479.680;  19002.498; 0;  18840.014;  19002.498;  20120.605;  17640.926;248;   6.207; 193.899;;; 338.596;  74.900;  13.120;  13.096;  12.753;   6.543;   6.192;   5.787;   1.748;   1.406;;;;;;;;;;;;;;;;;;
2016-11-11T01:20:01.059Z;0;4.8200e+00;0;     0.203;  2480.324;  19871.379; 0;  19715.975;  19871.379;  20995.104;  18514.779;248;   6.206; 194.032;;; 338.729;  75.028;  13.121;  13.071;  12.728;   6.540;   6.191;   5.787;   1.749;   1.403;;;;;;;;;;;;;;;;;;
2016-11-11T01:21:21.058Z;0;4.4060e+00;0;     0.147;  2481.360;  19013.023; 0;  18850.408;  19013.023;  20131.873;  17650.514;248;   6.201; 194.699;;; 339.392;  75.686;  13.127;  12.946;  12.603;   6.529;   6.187;   5.783;   1.758;   1.389;;;;;;;;;;;;;;;;;;
2016-11-11T01:21:37.058Z;0;4.4020e+00;0;     0.153;  2481.360;  19003.186; 0;  18840.486;  19003.186;  20121.973;  17640.611;248;   6.201; 194.833;;; 339.524;  75.818;  13.128;  12.921;  12.578;   6.527;   6.186;   5.782;   1.759;   1.386;;;;;;;;;;;;;;;;;;
2016-11-11T01:21:53.058Z;0;4.4310e+00;0;     0.113;  2481.360;  19065.285; 0;  18903.121;  19065.285;  20184.471;  17703.111;248;   6.200; 194.966;;; 339.657;  75.949;  13.129;  12.896;  12.553;   6.525;   6.185;   5.781;   1.761;   1.383;;;;;;;;;;;;;;;;;;
2016-11-11T01:22:09.058Z;0;4.5290e+00;0;     0.173;  2482.116;  19270.432; 0;  19109.910;  19270.432;  20391.225;  17909.107;248;   6.199; 195.100;;; 339.790;  76.081;  13.130;  12.871;  12.527;   6.522;   6.184;   5.780;   1.762;   1.381;;;;;;;;;;;;;;;;;;
2016-11-11T01:22:25.058Z;0;4.5070e+00;0;     0.132;  2482.116;  19224.791; 0;  19063.885;  19224.791;  20345.297;  17863.180;248;   6.198; 195.233;;; 339.922;  76.213;  13.131;  12.846;  12.502;   6.520;   6.183;   5.780;   1.764;   1.378;;;;;;;;;;;;;;;;;;
2016-11-11T01:22:41.058Z;0;4.5660e+00;0;     0.129;  2482.116;  19348.637; 0;  19188.770;  19348.637;  20469.918;  17987.803;248;   6.197; 195.366;;; 340.055;  76.345;  13.132;  12.821;  12.477;   6.518;   6.182;   5.779;   1.766;   1.375;;;;;;;;;;;;;;;;;;
2016-11-11T01:22:57.058Z;0;4.6270e+00;0;     0.194;  2482.116;  19474.986; 0;  19316.164;  19474.986;  20597.051;  18114.934;248;   6.196; 195.500;;; 340.188;  76.477;  13.134;  12.795;  12.452;   6.516;   6.182;   5.778;   1.767;   1.372;;;;;;;;;;;;;;;;;;
2016-11-11T01:23:29.058Z;0;4.7620e+00;0;     0.151;  2483.180;  19752.990; 0;  19596.287;  19752.990;  20877.170;  18393.990;248;   6.194; 195.767;;; 340.453;  76.741;  13.136;  12.745;  12.402;   6.511;   6.180;   5.777;   1.770;   1.366;;;;;;;;;;;;;;;;;;
2016-11-11T01:23:45.057Z;0;4.7960e+00;0;     0.165;  2483.180;  19821.545; 0;  19665.387;  19821.545;  20946.133;  18462.953;248;   6.193; 195.900;;; 340.585;  76.874;  13.137;  12.720;  12.376;   6.509;   6.179;   5.776;   1.772;   1.364;;;;;;;;;;;;;;;;;;
2016-11-11T01:24:01.057Z;0;4.7680e+00;0;     0.136;  2484.300;  19765.771; 0;  19609.027;  19765.771;  20890.480;  18406.182;248;   6.193; 196.034;;; 340.718;  77.006;  13.138;  12.695;  12.351;   6.507;   6.178;   5.775;   1.774;   1.361;;;;;;;;;;;;;;;;;;
2016-11-11T01:24:17.057Z;0;4.7730e+00;0;     0.142;  2484.300;  19776.400; 0;  19619.742;  19776.400;  20901.174;  18416.873;248;   6.192; 196.167;;; 340.851;  77.138;  13.139;  12.670;  12.326;   6.505;   6.177;   5.774;   1.775;   1.358;;;;;;;;;;;;;;;;;;
2016-11-11T01:24:33.057Z;0;4.7390e+00;0;     0.149;  2484.300;  19705.969; 0;  19548.746;  19705.969;  20830.320;  18346.020;248;   6.191; 196.300;;; 340.983;  77.271;  13.140;  12.645;  12.301;   6.502;   6.176;   5.774;   1.777;   1.355;;;;;;;;;;;;;;;;;;
2016-11-11T01:24:49.057Z;0;4.7450e+00;0;     0.130;  2484.300;  19718.914; 0;  19561.795;  19718.914;  20843.344;  18359.043;248;   6.190; 196.434;;; 341.116;  77.403;  13.141;  12.620;  12.276;   6.500;   6.175;   5.773;   1.778;   1.352;;;;;;;;;;;;;;;;;;
2016-11-11T01:25:05.057Z;0;4.8460e+00;0;     0.140;  2485.140;  19922.930; 0;  19767.326;  19922.930;  21048.912;  18563.771;248;   6.189; 196.567;;; 341.248;  77.536;  13.143;  12.595;  12.251;   6.498;   6.175;   5.772;   1.780;   1.349;;;;;;;;;;;;;;;;;;
2016-11-11T01:25:21.057Z;0;4.8000e+00;0;     0.141;  2485.140;  19830.875; 0;  19674.545;  19830.875;  20956.312;  18471.174;248;   6.188; 196.701;;; 341.381;  77.669;  13.144;  12.570;  12.225;   6.496;   6.174;   5.771;   1.782;   1.347;;;;;;;;;;;;;;;;;;
2016-11-11T01:25:37.057Z;0;4.8250e+00;0;     0.155;  2485.140;  19881.514; 0;  19725.584;  19881.514;  21007.252;  18522.111;248;   6.187; 196.834;;; 341.514;  77.801;  13.145;  12.544;  12.200;   6.494;   6.173;   5.770;   1.783;   1.344;;;;;;;;;;;;;;;;;;
2016-11-11T01:25:53.057Z;0;4.7990e+00;0;     0.148;  2485.140;  19827.881; 0;  19671.525;  19827.881;  20953.301;  18468.160;248;   6.186; 196.967;;; 341.646;  77.934;  13.146;  12.519;  12.175;   6.491;   6.172;   5.770;   1.785;   1.341;;;;;;;;;;;;;;;;;;
2016-11-11T01:26:09.057Z;0;4.7940e+00;0;     0.130;  2485.840;  19817.840; 0;  19661.316;  19817.840;  20943.484;  18457.645;248;   6.186; 197.101;;; 341.779;  78.067;  13.147;  12.494;  12.150;   6.489;   6.171;   5.769;   1.786;   1.338;;;;;;;;;;;;;;;;;;
2016-11-11T01:26:25.056Z;0;4.8190e+00;0;     0.147;  2485.840;  19869.861; 0;  19713.752;  19869.861;  20995.814;  18509.975;248;   6.185; 197.234;;; 341.912;  78.200;  13.148;  12.469;  12.124;   6.487;   6.170;   5.768;   1.788;   1.335;;;;;;;;;;;;;;;;;;
2016-11-11T01:26:41.056Z;0;4.9820e+00;0;     0.142;  2485.840;  20197.197; 0;  20043.637;  20197.197;  21325.057;  18839.217;248;   6.184; 197.368;;; 342.044;  78.333;  13.149;  12.444;  12.099;   6.485;   6.169;   5.767;   1.790;   1.332;;;;;;;;;;;;;;;;;;
2016-11-11T01:26:57.056Z;0;4.9670e+00;0;     0.150;  2485.840;  20166.984; 0;  20013.191;  20166.984;  21294.670;  18808.830;248;   6.183; 197.501;;; 342.177;  78.466;  13.150;  12.418;  12.074;   6.483;   6.169;   5.767;   1.791;   1.329;;;;;;;;;;;;;;;;;;
2016-11-11T01:27:13.056Z;0;4.9900e+00;0;     0.101;  2486.540;  20212.676; 0;  20059.146;  20212.676;  21340.910;  18854.369;248;   6.182; 197.635;;; 342.309;  78.599;  13.151;  12.393;  12.049;   6.481;   6.168;   5.766;   1.793;   1.327;;;;;;;;;;;;;;;;;;
2016-11-11T01:27:29.056Z;0;4.9680e+00;0;     0.091;  2486.540;  20169.217; 0;  20015.355;  20169.217;  21297.201;  18810.660;248;   6.181; 197.768;;; 342.442;  78.733;  13.153;  12.368;  12.023;   6.478;   6.167;   5.765;   1.794;   1.324;;;;;;;;;;;;;;;;;;
2016-11-11T01:27:45.056Z;0;4.9570e+00;0;     0.088;  2486.540;  20146.697; 0;  19992.662;  20146.697;  21274.553;  18788.012;248;   6.180; 197.901;;; 342.575;  78.866;  13.154;  12.343;  11.998;   6.476;   6.166;   5.764;   1.796;   1.321;;;;;;;;;;;;;;;;;;
2016-11-11T01:28:01.056Z;0;4.9540e+00;0;     0.081;  2487.324;  20142.012; 0;  19987.842;  20142.012;  21270.158;  18782.834;248;   6.179; 198.035;;; 342.707;  78.999;  13.155;  12.318;  11.973;   6.474;   6.165;   5.763;   1.798;   1.318;;;;;;;;;;;;;;;;;;
2016-11-11T01:28:17.056Z;0;4.9530e+00;0;     0.073;  2487.324;  20139.023; 0;  19984.832;  20139.023;  21267.152;  18779.828;248;   6.179; 198.168;;; 342.840;  79.133;  13.156;  12.292;  11.947;   6.472;   6.164;   5.763;   1.799;   1.315;;;;;;;;;;;;;;;;;;
2016-11-11T01:28:33.056Z;0;4.9580e+00;0;     0.068;  2487.324;  20149.570; 0;  19995.459;  20149.570;  21277.760;  18790.436;248;   6.178; 198.302;;; 342.972;  79.266;  13.157;  12.267;  11.922;   6.470;   6.163;   5.762;   1.801;   1.312;;;;;;;;;;;;;;;;;;
2016-11-11T01:28:49.056Z;0;4.9660e+00;0;     0.061;  2487.324;  20166.016; 0;  20012.031;  20166.016;  21294.301;  18806.977;248;   6.177; 198.435;;; 343.105;  79.400;  13.158;  12.242;  11.897;   6.468;   6.163;   5.761;   1.802;   1.310;;;;;;;;;;;;;;;;;;
2016-11-11T01:29:05.055Z;0;4.9670e+00;0;     0.063;  2487.856;  20167.932; 0;  20013.896;  20167.932;  21296.443;  18808.588;248;   6.176; 198.568;;; 343.238;  79.533;  13.159;  12.217;  11.871;   6.465;   6.162;   5.760;   1.804;   1.307;;;;;;;;;;;;;;;;;;
2016-11-11T01:29:21.055Z;0;4.9540e+00;0;     0.064;  2487.856;  20141.027; 0;  19986.785;  20141.027;  21269.385;  18781.529;248;   6.175; 198.702;;; 343.370;  79.667;  13.160;  12.191;  11.846;   6.463;   6.161;   5.759;   1.806;   1.304;;;;;;;;;;;;;;;;;;
2016-11-11T01:29:37.055Z;0;4.9430e+00;0;     0.071;  2487.856;  20119.523; 0;  19965.115;  20119.523;  21247.756;  18759.900;248;   6.174; 198.835;;; 343.503;  79.801;  13.161;  12.166;  11.821;   6.461;   6.160;   5.759;   1.807;   1.301;;;;;;;;;;;;;;;;;;
2016-11-11T01:29:53.055Z;0;4.9810e+00;0;     0.093;  2487.856;  20194.967; 0;  20041.139;  20194.967;  21323.635;  18835.779;248;   6.173; 198.969;;; 343.635;  79.935;  13.163;  12.141;  11.795;   6.459;   6.159;   5.758;   1.809;   1.298;;;;;;;;;;;;;;;;;;
2016-11-11T01:30:09.055Z;0;5.1550e+00;0;     0.145;  2488.528;  20539.652; 0;  20388.344;  20539.652;  21670.539;  19182.012;248;   6.172; 199.102;;; 343.769;  80.068;  13.164;  12.116;  11.770;   6.457;   6.158;   5.757;   1.810;   1.295;;;;;;;;;;;;;;;;;;
2016-11-11T01:30:25.055Z;0;5.1420e+00;0;     0.158;  2488.528;  20515.457; 0;  20363.969;  20515.457;  21646.209;  19157.682;248;   6.172; 199.235;;; 343.903;  80.201;  13.165;  12.090;  11.745;   6.455;   6.157;   5.756;   1.812;   1.292;;;;;;;;;;;;;;;;;;
2016-11-11T01:30:41.055Z;0;5.1820e+00;0;     0.145;  2488.528;  20593.551; 0;  20442.641;  20593.551;  21724.736;  19236.209;248;   6.171; 199.369;;; 344.037;  80.333;  13.166;  12.065;  11.719;   6.453;   6.157;   5.755;   1.814;   1.290;;;;;;;;;;;;;;;;;;
2016-11-11T01:31:13.055Z;0;5.2430e+00;0;     0.162;  2489.340;  20712.811; 0;  20562.678;  20712.811;  21844.982;  19355.643;248;   6.169; 199.635;;; 344.305;  80.598;  13.168;  12.014;  11.668;   6.448;   6.155;   5.754;   1.817;   1.284;;;;;;;;;;;;;;;;;;
2016-11-11T01:31:29.055Z;0;5.1920e+00;0;     0.151;  2489.340;  20612.863; 0;  20461.996;  20612.863;  21744.488;  19255.148;248;   6.168; 199.769;;; 344.439;  80.731;  13.169;  11.989;  11.643;   6.446;   6.154;   5.753;   1.818;   1.281;;;;;;;;;;;;;;;;;;
2016-11-11T01:31:45.054Z;0;5.3810e+00;0;     0.182;  2489.340;  20979.588; 0;  20831.377;  20979.588;  22113.199;  19623.859;248;   6.167; 199.902;;; 344.574;  80.863;  13.170;  11.964;  11.618;   6.444;   6.153;   5.752;   1.820;   1.278;;;;;;;;;;;;;;;;;;
2016-11-11T01:32:01.054Z;0;5.3490e+00;0;     0.166;  2489.984;  20917.814; 0;  20769.086;  20917.814;  22051.359;  19561.375;248;   6.166; 200.036;;; 344.708;  80.996;  13.172;  11.938;  11.592;   6.442;   6.152;   5.751;   1.822;   1.275;;;;;;;;;;;;;;;;;;
2016-11-11T01:32:17.054Z;0;5.2520e+00;0;     0.167;  2489.984;  20730.467; 0;  20580.385;  20730.467;  21863.000;  19373.016;248;   6.165; 200.169;;; 344.843;  81.129;  13.173;  11.913;  11.567;   6.440;   6.151;   5.751;   1.823;   1.273;;;;;;;;;;;;;;;;;;
2016-11-11T01:32:33.054Z;0;5.3670e+00;0;     0.121;  2489.984;  20952.309; 0;  20803.826;  20952.309;  22086.039;  19596.055;248;   6.165; 200.302;;; 344.977;  81.261;  13.174;  11.888;  11.541;   6.438;   6.151;   5.750;   1.825;   1.270;;;;;;;;;;;;;;;;;;
2016-11-11T01:32:49.054Z;0;5.3500e+00;0;     0.104;  2489.984;  20918.574; 0;  20769.852;  20918.574;  22052.123;  19562.141;248;   6.164; 200.436;;; 345.112;  81.394;  13.175;  11.862;  11.516;   6.436;   6.150;   5.749;   1.826;   1.267;;;;;;;;;;;;;;;;;;
2016-11-11T01:33:05.054Z;0;5.5750e+00;0;     0.171;  2490.320;  21349.162; 0;  21203.420;  21349.162;  22485.109;  19994.789;248;   6.163; 200.569;;; 345.246;  81.526;  13.176;  11.837;  11.490;   6.434;   6.149;   5.748;   1.828;   1.264;;;;;;;;;;;;;;;;;;
2016-11-11T01:33:21.054Z;0;5.5960e+00;0;     0.176;  2490.320;  21388.854; 0;  21243.385;  21388.854;  22525.004;  20034.684;248;   6.162; 200.702;;; 345.381;  81.659;  13.177;  11.812;  11.465;   6.431;   6.148;   5.747;   1.830;   1.261;;;;;;;;;;;;;;;;;;
2016-11-11T01:33:37.054Z;0;5.5090e+00;0;     0.167;  2490.320;  21224.711; 0;  21078.109;  21224.711;  22360.014;  19869.695;248;   6.161; 200.836;;; 345.516;  81.791;  13.178;  11.786;  11.439;   6.429;   6.147;   5.747;   1.831;   1.258;;;;;;;;;;;;;;;;;;
2016-11-11T01:33:53.054Z;0;5.4760e+00;0;     0.124;  2490.320;  21161.010; 0;  21013.963;  21161.010;  22295.980;  19805.660;248;   6.160; 200.969;;; 345.651;  81.924;  13.179;  11.761;  11.414;   6.427;   6.146;   5.746;   1.833;   1.255;;;;;;;;;;;;;;;;;;
2016-11-11T01:34:09.053Z;0;5.6240e+00;0;     0.140;  2490.908;  21441.662; 0;  21296.484;  21441.662;  22578.326;  20087.418;248;   6.159; 201.103;;; 345.786;  82.057;  13.180;  11.735;  11.388;   6.425;   6.146;   5.745;   1.834;   1.253;;;;;;;;;;;;;;;;;;
2016-11-11T01:34:25.053Z;0;5.5070e+00;0;     0.111;  2490.908;  21220.143; 0;  21073.439;  21220.143;  22355.664;  19864.756;248;   6.159; 201.236;;; 345.921;  82.189;  13.182;  11.710;  11.363;   6.423;   6.145;   5.744;   1.836;   1.250;;;;;;;;;;;;;;;;;;
2016-11-11T01:34:41.053Z;0;5.6530e+00;0;     0.148;  2490.908;  21496.057; 0;  21351.248;  21496.057;  22632.996;  20142.088;248;   6.158; 201.369;;; 346.056;  82.322;  13.183;  11.684;  11.337;   6.421;   6.144;   5.743;   1.838;   1.247;;;;;;;;;;;;;;;;;;
2016-11-11T01:34:57.053Z;0;5.7180e+00;0;     0.140;  2490.908;  21617.771; 0;  21473.785;  21617.771;  22755.326;  20264.418;248;   6.157; 201.503;;; 346.191;  82.454;  13.184;  11.659;  11.312;   6.419;   6.143;   5.743;   1.839;   1.244;;;;;;;;;;;;;;;;;;